Regional Weather Roundup
Issued by NWS Midland/Odessa, TX

Skip options and go directly to product.
Home | Oldest Version | Next Version | Current Version | All | Text Only | Save Text | Print | Product List | Glossary On

Skip product version selection by date and time.   
621
ASUS44 KMAF 230402
RWRMAF
MIDLAND AREA WEATHER ROUNDUP
NATIONAL WEATHER SERVICE MIDLAND TX
1100 PM CDT MON SEP 22 2014

...IN SOUTHWEST TEXAS AND SOUTHEAST NEW MEXICO...

CITY           SKY/WX    TMP DP  RH WIND       PRES   REMARKS
ALPINE         CLOUDY    65  52  62 CALM      30.33R
ANDREWS        FAIR      69  65  88 E8        30.23S
ARTESIA        NOT AVBL
BIG SPRING     PTCLDY    74  65  74 NE10      30.21F
CARLSBAD       CLOUDY    69  69 100 CALM      30.20S
DRYDEN           N/A     77  58  51 E5        30.15R
FORT STOCKTON  PTCLDY    68  57  68 S7        30.19S
GUAD PASS      CLOUDY    61  59  93 NE28        N/A
HOBBS          CLOUDY    68  66  94 E9        30.25S
MARFA          CLOUDY    64  54  68 N7        30.31S
MIDLAND AIRPK  NOT AVBL
MIDLAND INTL   MOCLDY    72  61  68 E8        30.20R
ODESSA           N/A     70  63  78 E7        30.21R
PECOS          MOCLDY    70  61  74 E3        30.18R
PRESIDIO       MOCLDY    78  54  43 NE10G21   30.15R
SEMINOLE       MOCLDY    68  65  90 E8        30.25S
SNYDER         MOCLDY    71  64  78 NE5       30.21S
WINK           CLOUDY    72  63  73 E6        30.18R
$$
...OTHER STATIONS IN TEXAS...

CITY           SKY/WX    TMP DP  RH WIND       PRES   REMARKS
ABILENE        MOCLDY    77  60  55 E10       30.18S
AMARILLO       MOCLDY    65  58  78 S15       30.22R
AUSTIN         MOCLDY    78  70  76 NE6       30.10R
BROWNSVILLE    CLEAR     78  73  84 NE5       30.03R
CORPUS CHRISTI PTCLDY    77  73  87 SE6       30.04R
DALLAS FTW     PTCLDY    73  52  47 E8        30.15S
DEL RIO        PTCLDY    80  66  62 N3        30.08R
EL PASO        LGT RAIN  70  64  81 E3        30.20R
HOUSTON INT    PTCLDY    77  64  64 NE3       30.08R
LUBBOCK        MOCLDY    65  61  87 E8        30.24S
SAN ANGELO     CLEAR     72  66  81 E7        30.16R
SAN ANTONIO    CLEAR     81  69  67 NE6       30.10R
WACO           PTCLDY    73  53  49 E8        30.13R
WICHITA FALLS  NOT AVBL
$$
...OTHER LOCATIONS IN NEW MEXICO...

CITY           SKY/WX    TMP DP  RH WIND       PRES   REMARKS
ALAMAGORDO     NOT AVBL
ALBUQUERQUE    CLOUDY    66  62  87 S6        30.26S
CANNON AFB     PTCLDY    64  64 100 S7        30.26F
CLOVIS           N/A     64  63  94 S8        30.28F
HOLLOMAN AFB   NOT AVBL
ROSWELL        MOCLDY    67  64  90 S6        30.22R
RUIDOSO        CLOUDY    57  57 100 SE5       30.40R FOG
SANTA FE       CLOUDY    63  57  81 SE8       30.32R
TRUTH OR CONSE CLOUDY    69  64  84 CALM      30.24R
TUCUMCARI      MOCLDY    65  60  84 S12       30.21F
$$

USA.gov is the U.S. government's official web portal to all federal, state and local government web resources and services.